Flag for Spain Weather past 2 weeks in Mahón, Menorca, Spain

Now
88 °F

Sunny.


Feels Like: 86 °F
Forecast: 73 / 87 °F
Wind: 13 mph from East

Location: Menorca / Mahon

Current Time: Jul 1, 2015 at 3:19:20 PM

Latest Report: Jul 1, 2015 at 2:00 PM


Visibility: 19 mi

Pressure: 30.06 "Hg

Humidity: 35%

Dew point: 57 °F

Location of MahónLocation

Historic Weather in Mahón — Graph

°F

Mahón temperature yesterday

Maximum temperature yesterday: 89 °F (at 12:00 PM)
Minimum temperature yesterday: 71 °F (at 2:00 AM)
Average temperature yesterday: 82 °F

Past Weeks' High & Low Weather Summary

 TemperatureHumidityPressure
High89 °F (Jun 29, 2:00 PM)94% (Jun 16, 3:00 PM)30.18 "Hg (Jun 16, 3:00 PM)
Low62 °F (Jun 17, 12:00 AM)24% (Jun 20, 6:00 PM)29.87 "Hg (Jun 23, 8:00 AM)
Average74 °F67%30.07 "Hg
* Reported Jun 16 2:00 PM — Jul 1 2:00 PM, Mahón, Weather by CustomWeather, © 2015

Note: Actual official high and low records may vary slightly from our data, if they occured in-between our weather recording intervals... More about our weather records

Advertising

Mahón weather history for previous 24 hours

 ConditionsComfort  
Time TempWeatherWind HumidityBarometerVisibility
2:00 PM
Wed, Jul 1
88 °FSunny.13 mph35%30.06 "Hg19 mi
1:00 PM88 °FPleasantly warm.13 mph39%30.07 "HgN/A
12:00 PM87 °FPleasantly warm.12 mph36%30.07 "HgN/A
11:00 AM87 °FSunny.9 mph38%30.06 "Hg19 mi
10:00 AM83 °FWarm.8 mph45%30.06 "HgN/A
9:00 AM79 °FSunny.12 mph68%30.04 "Hg17 mi
8:00 AM76 °FSunny.9 mph84%30.04 "Hg11 mi
7:00 AM73 °FMild.7 mph91%30.04 "HgN/A
6:00 AM71 °FMild.6 mph93%30.04 "HgN/A
5:00 AM72 °FClear.5 mph92%30.04 "Hg9 mi
4:00 AM72 °FMild.5 mph92%30.04 "HgN/A
3:00 AM72 °FMild.5 mph92%30.05 "HgN/A
2:00 AM73 °FPassing clouds.5 mph92%30.06 "Hg7 mi
1:00 AM73 °FMild.3 mph91%30.06 "HgN/A
12:00 AM74 °FMild.2 mph89%30.07 "HgN/A
11:00 PM
Tue, Jun 30
74 °FClear.5 mph88%30.07 "Hg12 mi
10:00 PM75 °FMild.5 mph86%30.06 "HgN/A
9:00 PM78 °FWarm.7 mph74%30.05 "HgN/A
8:00 PM81 °FSunny.8 mph62%30.04 "Hg25 mi
6:00 PM87 °FWarm.10 mph53%30.04 "HgN/A
4:00 PM88 °FWarm.8 mph46%30.06 "HgN/A
3:00 PM88 °FSunny.10 mph47%30.07 "Hg22 mi
Weather by CustomWeather, © 2015

See weather overviewHow to use our weather pages